User: anonymous   Login
Location: Unspecified
(0.0000°N, 0.0000°E)
Time: 17:44:21
(UTC+00:00)
Language:

YAOGAN 15 - Orbit

View from above orbital plane
View from above orbital plane
View from above satellite
View from above satellite

Ground track
Ground track

The orbit data is extracted from the following two-line orbital elements,

1 38354U 12029A   18198.01103290 -.00000038  00000-0  18714-4 0  9997
2 38354 100.4452 330.7929 0004787 287.9045  72.1546 13.15148242294444
Epoch (UTC): 17 July 2018 00:15:53
Eccentricity: 0.0004787
inclination: 100.4452°
perigee height: 1199 km
apogee height: 1207 km
right ascension of ascending node: 330.7929°
argument of perigee: 287.9045°
revolutions per day: 13.15148242
mean anomaly at epoch: 72.1546°
orbit number at epoch: 29444

The dashed part of the orbit path shows where the satellite is in the earth's shadow,  

DLR